STARLINK-34763, 65206

Orbit data source: Space-Track

STARLINK-34763, 65206 is a payload satellite owned by SpaceX/Seattle (US) in LEO that was launched on Thu, 14 Aug 2025 UTC via an FALCON 9 launch vehicle from the Air Force Eastern Test Range (AFETR). Payload-class satellites include a variety of spacecraft equipped with specific instruments for various scientific and technological missions. These include communications satellites like Starlink; space stations such as the ISS; scientific satellites like the Hubble; Earth observation satellites from companies like Planet Labs, Umbra, and HawkEye 360; GPS; miniature CubeSats for education and research; and military/defense satellites.

Loading next visibility...
Identifier
65206, 2025-176J
Orbit
LEO
Country
Flag of USUS
Related business
Manufacturer
SpaceX/Seattle
Mission
Operational Commercial Communications
Bus & Motor
STARLINK V2MO, Unknown motor
Mass
575 kg wet, ~530 kg dry
Launch date (UTC)
2025-08-14 (10 months ago)
Launch vehicle
FALCON 9
Launch site
Air Force Eastern Test Range (AFETR)
Object type
Payload
Rocket body
Debris
Shape & HBR
Box + 2 Pan, 17.7 m
Radar Cross Section
36.964 m², Large (>1 m²)

Expand to show TLE details & history
Last TLE update: 14 hours ago

TLE from 14 hours ago
0 STARLINK-34763
1 65206U 25176J   26171.32686911  .00018021  00000-0  54310-3 0  9991
2 65206  53.1591  34.6431 0001730  79.3213 280.7985 15.34405785 48847
Epoch: 2026-06-20T07:50Z
TLE epoch observation values (Epoch: 2026-06-20T07:50:41.491Z)
Latitude
0.00005°
Longitude
8.42717°
Altitude
463.366 km
Speed
7.636 km/s
True Right ascension
02h 18m 34s
True Declination
0° 00' 00"
Sunlit
Object was in daylight at epoch
Visualization orbit readout
Latitude
Unknown
Longitude
Unknown
Altitude
Unknown
Speed
Unknown
Apparent Right ascension
Unknown
Apparent Declination
Unknown
Sunlit
N/A
Visualization observer readout
Local Sidereal Time
08:42:07
Azimuth
Unknown
Elevation
Unknown
Doppler factor
Unknown
Orbital elements
Apogee altitude
464.127 km
Perigee altitude
461.76 km
Semi-major axis
6,841.08 km
Eccentricity
0.00017
Inclination
53.1591°
RAAN
34.6431°
Arg. of periapsis
79.3213°
True anomaly
280.77903°
Mean anomaly
280.7985°
Eccentric anomaly
280.78876°
Mean motion
3.8358 °/min
Orbital period
93.85 mins
BSTAR
0.0005431
Loading maneuver chart data...
Computing Atmospheric mass density...
Loading historical data...
Loading historical data...
Loading historical data...
Loading historical data...
Loading historical data...
Loading historical data...
Loading historical data...

Documentation

Showing up to 5 results
|